STARLINK-1177, 45078

Orbit data source: Space-Track

STARLINK-1177, 45078 is a payload satellite owned by SpaceX/Seattle (US) in LEO that was launched on Wed, 29 Jan 2020 UTC via an FALCON 9 launch vehicle from the Air Force Eastern Test Range (AFETR). Payloads include a variety of satellites, spacecraft, and rockets equipped with specific instruments for various scientific and technological missions. These include communications satellites like Starlink; space stations such as the ISS; scientific satellites like the Hubble; Earth observation satellites from companies like Planet Labs, Umbra, and HawkEye 360; GPS; miniature CubeSats for education and research; and military/defense satellites.

Loading next visibility...
STARLINK-1177 details
Identifier
45078, 2020-006AL
Orbit
LEO
Last TLE update21 hours ago
Origin
Flag of USSpaceX/Seattle (US)
ManufacturerSpaceX/Seattle
MissionPartially operational Commercial Communications
Bus & MotorSTARLINK, Unknown motor
Mass260 kg wet, ~248 kg dry
Launch date (UTC)
2020-01-29 (5 years ago)
Launch vehicle
FALCON 9
Launch site
Air Force Eastern Test Range (AFETR)
Object type
Payload
Rocket body
Debris
Shape & HBRBox + 1 Pan, 8.86 m
Radar Cross Section13.562 m², Large (>1 m²)

Expand to show TLE details & history

TLE from 21 hours ago
0 STARLINK-1177
1 45078U 20006AL  24360.58335648  .00198024  00000-0  13067-2 0  9992
2 45078  53.0521  62.0251 0005342  29.5259  72.9499 15.74493046  5765
Epoch: 2024-12-25T14:00Z
Definitive object data (Epoch: 2024-12-25T14:00:01.999Z)
Latitude51.42639°
Longitude-132.23813°
Altitude351.137 km
Speed7.705 km/s
True Right ascension11h 29m 22s
True Declination51° 14' 54"
Sunlit
Object was in full shadow at TLE epoch
Visualization TLE readout
Latitude-49.00489°
Longitude53.79329°
Altitude362.69 km
Speed7.691 km/s
Apparent Right ascension22h 52m 12s
Apparent Declination-45° 20' 07"
Sunlit
Object is in daylight
Visualization observer readout
Local Sidereal Time09:56:54
Azimuth237.382° WSW
Elevation-78.495°
Doppler factor1
Orbital elements
Apogee altitude349.945 km
Perigee altitude342.761 km
Semi-major axis6,724.49 km
Eccentricity0.0005342
Inclination53.0521°
RAAN62.0251°
Arg. of periapsis29.5259°
True anomaly73.00844°
Mean anomaly72.9499°
Eccentric anomaly72.97917°
Mean motion3.93599 °/min
BSTAR0.0013067
Orbital period91.46 mins
Loading maneuver chart data...
Loading historical data...
Loading historical data...
Loading historical data...
Loading historical data...
Loading historical data...
Loading historical data...
Loading historical data...

STARLINK-1177 Visibility forecast

Observer location: undefined°, undefined

Span
Click to sort rows by Start time (UTC) header in descending order
Start Az.
Max El. time (UTC)
Max El. Az.
Max El.
End time (UTC)
End Az.
4 mins2024-12-26 12:52:41.520Z337.289° NNW2024-12-26 12:54:41.520Z27.062° NE21.514°2024-12-26 12:56:41.520Z80.606° E
4 mins2024-12-27 06:53:41.520Z242.038° WSW2024-12-27 06:55:41.520Z10.232° NNE40.194°2024-12-27 06:57:41.520Z44.268° NE
|